CW5834 Weather Reports


time (UTC)temp
F
wind
direction
speed
knots
gust
knots
rain 1hr
in
rain 24hr
in
rain mn
in
humidity
%
barometer
mb
20260507104517 53 0.0 1.7 0.01 0.23 0.03 92 1013.0
20260507103517 53 0.0 1.7 0.01 0.24 0.03 92 1012.8
20260507102517 53 0.0 1.7 0.01 0.24 0.03 92 1013.0
20260507101517 53 0.0 1.7 0.01 0.24 0.03 92 1013.0
20260507100517 53 0.0 1.7 0.01 0.24 0.03 92 1012.6
20260507095517 53 0.0 0.9 0.00 0.23 0.02 92 1012.8
20260507094516 53 0.0 1.7 0.00 0.23 0.02 92 1012.4
20260507093516 53 0.0 1.7 0.00 0.23 0.02 92 1012.9
20260507092517 53 0.0 1.7 0.00 0.23 0.02 92 1012.8
20260507091536 53 0.0 0.9 0.00 0.23 0.02 91 1012.4
20260507090516 53 0.0 1.7 0.00 0.23 0.02 91 1012.4
20260507085516 53 0 0.9 1.7 0.01 0.23 0.02 91 1012.3
20260507084517 54 0.0 1.7 0.01 0.23 0.02 91 1012.0
20260507083517 54 0 0.9 2.6 0.01 0.23 0.02 90 1012.2
20260507082516 54 315 2.6 4.3 0.01 0.23 0.02 90 1012.8
20260507081517 54 315 0.9 5.2 0.01 0.23 0.02 91 1012.8
20260507080516 54 338 0.9 1.7 0.01 0.23 0.02 91 1012.6
20260507075516 54 315 1.7 3.5 0.00 0.22 0.01 90 1012.6
20260507074516 54 315 1.7 4.3 0.00 0.22 0.01 91 1012.6
20260507073516 55 68 1.7 4.3 0.00 0.22 0.01 91 1012.6
20260507072516 55 0.0 0.9 0.00 0.22 0.01 92 1012.6
20260507071516 55 293 0.9 3.5 0.00 0.22 0.01 92 1012.7
20260507070536 55 0.0 1.7 0.00 0.22 0.01 92 1012.3
20260507065516 55 0.0 1.7 0.00 0.22 0.01 93 1012.6
20260507064516 55 0.0 0.9 0.01 0.22 0.01 93 1012.6
20260507063516 55 338 1.7 3.5 0.01 0.22 0.01 92 1012.6
20260507062516 55 113 0.9 3.5 0.01 0.22 0.01 92 1012.8
20260507061516 56 338 1.7 4.3 0.01 0.22 0.01 91 1013.1
20260507060536 56 0 2.6 6.1 0.01 0.22 0.01 91 1013.1
20260507055517 56 293 3.5 7.0 0.01 0.23 0.01 91 1013.3
20260507054516 56 315 2.6 7.0 0.00 0.22 0.00 91 1013.2
20260507053516 57 315 1.7 7.0 0.00 0.22 0.00 91 1013.5
20260507052536 58 315 1.7 5.2 0.00 0.22 0.00 92 1013.6
20260507051517 58 338 0.9 3.5 0.00 0.22 0.00 92 1013.5
20260507050516 58 338 1.7 7.0 0.00 0.22 0.00 92 1013.2
20260507045516 58 315 1.7 4.3 0.00 0.22 0.00 92 1013.0
20260507044516 59 315 0.9 1.7 0.00 0.22 0.00 92 1012.8
20260507043516 59 0 0.9 2.6 0.00 0.22 0.00 92 1012.7
20260507042516 59 315 0.9 1.7 0.00 0.22 0.00 92 1012.8
20260507041516 59 23 0.9 1.7 0.01 0.22 0.00 92 1012.8
20260507040516 59 0.0 1.7 0.01 0.22 0.00 92 1013.1
20260507035517 60 0.0 1.7 0.01 0.22 0.22 92 1013.1
20260507034517 60 0 0.9 2.6 0.01 0.23 0.22 93 1013.7
20260507033517 60 0.0 1.7 0.01 0.23 0.22 93 1013.7
20260507032537 60 0.0 1.7 0.01 0.23 0.22 93 1013.7
20260507031517 60 315 0.9 1.7 0.00 0.22 0.21 93 1014.1
20260507030517 60 0.0 1.7 0.00 0.22 0.21 93 1013.6
20260507025517 60 0.0 0.0 0.00 0.22 0.21 93 1013.8
20260507024517 60 0.0 1.7 0.00 0.22 0.21 93 1013.4
20260507023517 60 0.0 1.7 0.00 0.22 0.21 93 1013.3
20260507022516 60 0.0 1.7 0.00 0.22 0.21 93 1013.6
20260507021517 60 0.0 0.9 0.00 0.22 0.21 92 1013.4
20260507020516 60 0.0 0.0 0.01 0.22 0.21 92 1013.2
20260507015516 60 0.0 0.9 0.01 0.22 0.21 92 1013.7
20260507014517 61 338 1.7 3.5 0.01 0.22 0.21 91 1013.0
20260507013516 61 0.0 1.7 0.01 0.22 0.21 91 1013.3
20260507012517 61 0.0 1.7 0.01 0.22 0.21 91 1013.3
20260507011536 62 315 0.9 3.5 0.01 0.22 0.21 91 1014.1
20260507010516 62 113 0.9 2.6 0.01 0.21 0.20 92 1014.2
20260507005556 62 315 1.7 6.1 0.02 0.21 0.20 92 1014.5
20260507004516 62 338 0.9 1.7 0.02 0.21 0.20 92 1014.2
20260507003519 62 315 0.9 1.7 0.03 0.21 0.20 92 1013.6
20260507002537 63 0.0 1.7 0.08 0.21 0.20 91 1013.0
20260507001516 63 0.0 1.7 0.08 0.21 0.20 91 1013.2
20260507000516 63 338 1.7 2.6 0.08 0.20 0.19 91 1013.5
20260506235516 63 180 0.9 1.7 0.08 0.19 0.18 91 1012.8
20260506234516 64 270 0.9 1.7 0.08 0.19 0.18 90 1012.8
20260506233516 64 338 1.7 4.3 0.07 0.18 0.17 88 1012.5
20260506232516 65 270 3.5 7.0 0.02 0.13 0.12 88 1013.0
20260506231536 66 180 1.7 4.3 0.02 0.13 0.12 89 1012.3
20260506230517 67 180 1.7 7.0 0.01 0.12 0.11 88 1012.7
20260506225536 67 203 1.7 4.3 0.00 0.11 0.10 87 1012.6
20260506224616 67 225 2.6 7.0 0.00 0.11 0.10 86 1012.7
20260506223516 67 180 1.7 4.3 0.00 0.11 0.10 86 1012.6
20260506222536 67 203 1.7 4.3 0.00 0.11 0.10 86 1012.6
20260506221516 67 203 1.7 5.2 0.00 0.11 0.10 86 1012.4
20260506220516 67 203 2.6 6.1 0.00 0.11 0.10 85 1012.4
20260506215516 68 203 3.5 9.6 0.00 0.11 0.10 85 1012.6
20260506214516 68 203 2.6 7.0 0.00 0.11 0.10 84 1012.6
20260506213516 68 225 2.6 6.1 0.00 0.11 0.10 83 1012.4
20260506212516 68 225 3.5 8.7 0.00 0.11 0.10 82 1012.3
20260506211516 69 225 2.6 6.1 0.00 0.11 0.10 81 1011.9
20260506210516 69 203 2.6 7.0 0.00 0.11 0.10 80 1012.0
20260506205544 69 225 2.6 7.8 0.00 0.11 0.10 81 1012.0
20260506204516 69 203 1.7 5.2 0.00 0.11 0.10 81 1012.0
20260506203516 69 225 1.7 7.8 0.00 0.11 0.10 80 1012.6
20260506202516 69 225 3.5 11.3 0.00 0.11 0.10 79 1012.5
20260506201536 70 225 4.3 9.6 0.00 0.11 0.10 80 1012.7
20260506200516 70 225 3.5 10.4 0.00 0.11 0.10 80 1013.0
20260506195516 69 203 3.5 9.6 0.00 0.11 0.10 80 1013.2
20260506194516 70 180 3.5 7.8 0.00 0.11 0.10 79 1013.3
20260506193516 70 203 2.6 7.8 0.00 0.11 0.10 79 1013.2
20260506192516 69 180 2.6 7.0 0.00 0.11 0.10 80 1013.0
20260506191556 69 225 1.7 4.3 0.00 0.11 0.10 81 1012.9
20260506190636 68 203 1.7 5.2 0.00 0.11 0.10 81 1012.9
20260506185516 68 225 2.6 9.6 0.00 0.11 0.10 81 1013.3
20260506184516 67 225 2.6 7.8 0.00 0.11 0.10 83 1013.7
20260506183516 67 225 2.6 5.2 0.00 0.11 0.10 82 1013.4
20260506182516 68 270 1.7 6.1 0.00 0.11 0.10 81 1013.2
20260506181516 68 203 3.5 8.7 0.00 0.11 0.10 80 1013.1
20260506180516 68 248 2.6 7.0 0.00 0.11 0.10 82 1012.9
20260506175516 67 270 2.6 7.0 0.00 0.11 0.10 83 1013.0
20260506174515 67 293 2.6 8.7 0.00 0.11 0.10 84 1012.7
20260506173515 67 225 1.7 5.2 0.00 0.11 0.10 84 1012.6
20260506172515 67 225 3.5 10.4 0.00 0.11 0.10 84 1012.7
20260506171516 67 248 2.6 8.7 0.00 0.11 0.10 84 1012.7
20260506170515 67 225 3.5 8.7 0.00 0.11 0.10 83 1012.6
20260506165516 68 248 2.6 9.6 0.00 0.11 0.10 83 1012.5
20260506164515 68 225 3.5 7.8 0.00 0.11 0.10 84 1012.3
20260506163535 68 225 2.6 7.0 0.00 0.11 0.10 84 1012.5
20260506162516 66 180 2.6 5.2 0.00 0.11 0.10 86 1012.4
20260506161535 65 180 2.6 6.1 0.01 0.11 0.10 87 1012.5
20260506160515 65 203 5.2 11.3 0.01 0.11 0.10 87 1012.6
20260506155516 64 180 2.6 8.7 0.01 0.11 0.10 88 1012.5
20260506154517 64 203 2.6 7.8 0.03 0.11 0.10 89 1012.5
20260506153517 63 180 4.3 10.4 0.03 0.11 0.10 89 1012.4
20260506152517 63 225 3.5 9.6 0.03 0.11 0.10 90 1012.7
20260506151517 63 203 3.5 7.0 0.02 0.10 0.09 90 1013.1
20260506150517 63 180 2.6 7.0 0.02 0.10 0.09 90 1013.1
20260506145517 64 225 2.6 6.1 0.02 0.10 0.09 89 1013.3
20260506144517 64 225 4.3 13.9 0.00 0.08 0.07 87 1012.8
20260506143617 64 225 4.3 8.7 0.00 0.08 0.07 87 1012.7
20260506142517 64 225 6.1 15.6 0.00 0.08 0.07 87 1012.5
20260506141517 64 225 4.3 10.4 0.00 0.08 0.07 87 1012.4
20260506140517 65 225 5.2 13.0 0.00 0.08 0.07 86 1012.2
20260506135517 64 225 3.5 8.7 0.01 0.08 0.07 87 1011.8
20260506134517 64 225 2.6 7.0 0.01 0.08 0.07 88 1011.3
20260506133517 64 225 5.2 14.8 0.01 0.08 0.07 88 1011.9
20260506132517 64 203 4.3 9.6 0.01 0.08 0.07 88 1012.0
20260506131517 63 203 4.3 8.7 0.02 0.08 0.07 88 1011.8
20260506130517 63 225 4.3 13.0 0.03 0.08 0.07 88 1011.9
20260506125537 63 225 4.3 11.3 0.03 0.07 0.06 87 1012.0
20260506124517 63 203 2.6 7.8 0.03 0.07 0.06 87 1011.9
20260506123517 63 203 3.5 8.7 0.03 0.07 0.06 87 1011.4
20260506122517 63 225 2.6 7.0 0.03 0.07 0.06 87 1011.6
20260506121517 63 203 2.6 6.1 0.02 0.06 0.05 85 1012.0
20260506120517 64 203 3.5 8.7 0.02 0.05 0.04 83 1012.1
20260506115517 64 180 2.6 7.0 0.01 0.04 0.03 80 1011.7
20260506114517 65 225 2.6 7.0 0.01 0.04 0.03 78 1011.8
20260506113517 65 248 2.6 7.8 0.02 0.04 0.03 78 1011.7
20260506112538 65 270 1.7 5.2 0.02 0.04 0.03 78 1011.5
20260506111537 66 203 5.2 12.2 0.02 0.04 0.03 75 1010.8
20260506110517 66 203 5.2 11.3 0.01 0.03 0.02 74 1011.2
20260506105517 66 203 1.7 5.2 0.01 0.03 0.02 76 1011.3